• In Uzbekistan
  • List of Countries
  • For 7 days
  • Water Temperature
  • Satellite Maps
  • Weather Map
  • Weather Widgets
  • user-avatar
    Login

    Hourly Weather Thompson

    Today, 24 November, Friday

    Time Temperature Precipitation Wind Pressure Humidity
    00:00 -16°C° 0.1 mm 2 mps 723 mmHg 95%
    01:00 -16°C° 0.1 mm 2 mps 723 mmHg 95%
    02:00 -16°C° 0.1 mm 2 mps 723 mmHg 95%
    03:00 -16°C° 0.2 mm 2 mps 723 mmHg 95%
    04:00 -16°C° 0.2 mm 2 mps 723 mmHg 95%
    05:00 -16°C° 0.2 mm 2 mps 723 mmHg 95%
    06:00 -16°C° 0.1 mm 2 mps 724 mmHg 94%
    07:00 -16°C° 0.1 mm 2 mps 725 mmHg 93%
    08:00 -17°C° 0.1 mm 2 mps 725 mmHg 93%
    09:00 -17°C° 0.1 mm 3 mps 726 mmHg 91%
    10:00 -17°C° 0.1 mm 3 mps 727 mmHg 89%
    11:00 -17°C° 0.1 mm 3 mps 728 mmHg 87%
    12:00 -17°C° 0 mm 3 mps 729 mmHg 86%
    13:00 -17°C° 0 mm 3 mps 730 mmHg 86%
    14:00 -17°C° 0 mm 3 mps 731 mmHg 86%
    15:00 -18°C° 0 mm 3 mps 732 mmHg 89%
    16:00 -19°C° 0 mm 3 mps 733 mmHg 91%
    17:00 -20°C° 0 mm 2 mps 734 mmHg 93%
    18:00 -20°C° 0 mm 2 mps 735 mmHg 93%
    19:00 -21°C° 0 mm 2 mps 736 mmHg 93%
    20:00 -23°C° 0 mm 2 mps 736 mmHg 92%
    21:00 -23°C° 0 mm 2 mps 737 mmHg 92%
    22:00 -24°C° 0 mm 2 mps 737 mmHg 92%
    23:00 -25°C° 0 mm 2 mps 737 mmHg 92%

    Tomorrow, 25 November, Saturday

    Time Temperature Precipitation Wind Pressure Humidity
    00:00 -25°C° 0 mm 2 mps 738 mmHg 92%
    01:00 -25°C° 0 mm 2 mps 739 mmHg 93%
    02:00 -26°C° 0 mm 3 mps 739 mmHg 93%
    03:00 -26°C° 0 mm 2 mps 739 mmHg 93%
    04:00 -26°C° 0 mm 2 mps 740 mmHg 93%
    05:00 -26°C° 0 mm 2 mps 740 mmHg 94%
    06:00 -26°C° 0 mm 2 mps 740 mmHg 94%
    07:00 -27°C° 0 mm 2 mps 740 mmHg 94%
    08:00 -27°C° 0 mm 2 mps 741 mmHg 94%
    09:00 -22°C° 0 mm 1 mps 741 mmHg 91%
    10:00 -20°C° 0 mm 1 mps 740 mmHg 87%
    11:00 -18°C° 0 mm 1 mps 740 mmHg 84%
    12:00 -17°C° 0.3 mm 1 mps 739 mmHg 88%
    13:00 -17°C° 0.3 mm 1 mps 739 mmHg 91%
    14:00 -16°C° 0.3 mm 1 mps 738 mmHg 94%
    15:00 -16°C° 0.4 mm 1 mps 738 mmHg 94%
    16:00 -16°C° 0.4 mm 1 mps 738 mmHg 95%
    17:00 -15°C° 0.4 mm 1 mps 737 mmHg 96%
    18:00 -15°C° 0.1 mm 1 mps 737 mmHg 96%
    19:00 -15°C° 0.1 mm 1 mps 737 mmHg 96%
    20:00 -16°C° 0.1 mm 1 mps 737 mmHg 96%
    21:00 -16°C° 0 mm 1 mps 737 mmHg 96%
    22:00 -19°C° 0 mm 2 mps 738 mmHg 95%
    23:00 -20°C° 0 mm 2 mps 739 mmHg 95%

    Day after tomorrow, 26 November, Sunday

    Time Temperature Precipitation Wind Pressure Humidity
    00:00 -20°C° 0 mm 2 mps 740 mmHg 95%
    01:00 -21°C° 0 mm 2 mps 740 mmHg 95%
    02:00 -24°C° 0 mm 3 mps 741 mmHg 95%
    03:00 -24°C° 0 mm 3 mps 742 mmHg 95%
    04:00 -25°C° 0 mm 3 mps 742 mmHg 94%
    05:00 -25°C° 0 mm 3 mps 743 mmHg 94%
    06:00 -25°C° 0 mm 2 mps 743 mmHg 94%
    07:00 -25°C° 0 mm 2 mps 743 mmHg 94%
    08:00 -25°C° 0 mm 2 mps 744 mmHg 94%
    09:00 -24°C° 0 mm 2 mps 744 mmHg 91%
    10:00 -24°C° 0 mm 3 mps 744 mmHg 88%
    11:00 -22°C° 0 mm 3 mps 744 mmHg 85%
    12:00 -20°C° 0 mm 2 mps 744 mmHg 86%
    13:00 -20°C° 0 mm 2 mps 743 mmHg 87%
    14:00 -19°C° 0 mm 2 mps 743 mmHg 88%
    15:00 -19°C° 0 mm 1 mps 743 mmHg 91%
    16:00 -20°C° 0 mm 1 mps 743 mmHg 93%
    17:00 -21°C° 0 mm 1 mps 743 mmHg 95%
    18:00 -22°C° 0 mm 1 mps 742 mmHg 95%
    19:00 -22°C° 0 mm 1 mps 742 mmHg 95%
    20:00 -22°C° 0 mm 0 mps 742 mmHg 95%
    21:00 -22°C° 0 mm 0 mps 741 mmHg 95%
    22:00 -21°C° 0 mm 0 mps 741 mmHg 94%
    23:00 -21°C° 0 mm 0 mps 740 mmHg 94%

    27 November, Monday

    Time Temperature Precipitation Wind Pressure Humidity
    00:00 -20°C° 0 mm 1 mps 739 mmHg 93%
    01:00 -19°C° 0 mm 1 mps 739 mmHg 92%
    02:00 -19°C° 0 mm 1 mps 738 mmHg 92%
    03:00 -18°C° 0.1 mm 1 mps 737 mmHg 92%
    04:00 -20°C° 0.1 mm 2 mps 736 mmHg 93%
    05:00 -20°C° 0.1 mm 2 mps 735 mmHg 94%
    06:00 -22°C° 0.5 mm 3 mps 734 mmHg 94%
    07:00 -21°C° 0.5 mm 3 mps 734 mmHg 95%
    08:00 -21°C° 0.5 mm 3 mps 733 mmHg 95%
    09:00 -19°C° 0.7 mm 3 mps 732 mmHg 95%
    10:00 -19°C° 0.7 mm 3 mps 731 mmHg 95%
    11:00 -18°C° 0.7 mm 3 mps 730 mmHg 95%
    12:00 -18°C° 0.6 mm 3 mps 729 mmHg 95%
    13:00 -17°C° 0.6 mm 3 mps 729 mmHg 95%
    14:00 -17°C° 0.6 mm 3 mps 728 mmHg 95%
    15:00 -17°C° 0.4 mm 3 mps 728 mmHg 94%
    16:00 -18°C° 0.4 mm 4 mps 728 mmHg 94%
    17:00 -18°C° 0.4 mm 4 mps 728 mmHg 94%
    18:00 -19°C° 0.2 mm 4 mps 728 mmHg 94%
    19:00 -19°C° 0.2 mm 4 mps 728 mmHg 93%
    20:00 -19°C° 0.2 mm 4 mps 728 mmHg 93%
    21:00 -19°C° 0.1 mm 4 mps 729 mmHg 93%
    22:00 -20°C° 0.1 mm 4 mps 729 mmHg 92%
    23:00 -20°C° 0.1 mm 4 mps 730 mmHg 92%

    28 November, Tuesday

    Time Temperature Precipitation Wind Pressure Humidity
    00:00 -20°C° 0 mm 4 mps 731 mmHg 92%
    01:00 -21°C° 0 mm 3 mps 731 mmHg 93%
    02:00 -21°C° 0 mm 3 mps 732 mmHg 93%
    03:00 -23°C° 0 mm 3 mps 733 mmHg 94%
    04:00 -24°C° 0 mm 3 mps 733 mmHg 95%
    05:00 -25°C° 0 mm 3 mps 734 mmHg 95%
    06:00 -25°C° 0 mm 2 mps 734 mmHg 95%
    07:00 -26°C° 0 mm 2 mps 735 mmHg 96%
    08:00 -27°C° 0 mm 2 mps 735 mmHg 96%
    09:00 -25°C° 0 mm 2 mps 736 mmHg 95%
    10:00 -24°C° 0 mm 2 mps 736 mmHg 93%
    11:00 -21°C° 0 mm 2 mps 736 mmHg 92%
    12:00 -21°C° 0 mm 2 mps 736 mmHg 93%
    13:00 -20°C° 0 mm 2 mps 736 mmHg 93%
    14:00 -20°C° 0 mm 2 mps 736 mmHg 94%
    15:00 -21°C° 0 mm 2 mps 736 mmHg 95%
    16:00 -20°C° 0 mm 1 mps 736 mmHg 96%
    17:00 -21°C° 0 mm 1 mps 736 mmHg 97%
    18:00 -22°C° 0 mm 1 mps 736 mmHg 97%
    19:00 -22°C° 0 mm 1 mps 736 mmHg 97%
    20:00 -22°C° 0 mm 1 mps 736 mmHg 96%
    21:00 -22°C° 0 mm 1 mps 736 mmHg 97%
    22:00 -22°C° 0 mm 1 mps 736 mmHg 97%
    23:00 -22°C° 0 mm 1 mps 736 mmHg 97%

    29 November, Wednesday

    Time Temperature Precipitation Wind Pressure Humidity
    00:00 -22°C° 0 mm 1 mps 735 mmHg 97%
    01:00 -21°C° 0 mm 1 mps 735 mmHg 98%
    02:00 -21°C° 0 mm 1 mps 735 mmHg 98%
    03:00 -21°C° 0 mm 1 mps 735 mmHg 98%
    04:00 -20°C° 0 mm 1 mps 735 mmHg 98%
    05:00 -20°C° 0 mm 1 mps 735 mmHg 98%
    06:00 -19°C° 0 mm 1 mps 735 mmHg 98%
    07:00 -18°C° 0 mm 1 mps 735 mmHg 98%
    08:00 -17°C° 0 mm 1 mps 735 mmHg 97%
    09:00 -16°C° 0.1 mm 1 mps 736 mmHg 96%
    10:00 -14°C° 0.1 mm 1 mps 736 mmHg 94%
    11:00 -13°C° 0.1 mm 0 mps 736 mmHg 92%
    12:00 -12°C° 0.1 mm 0 mps 736 mmHg 93%
    13:00 -12°C° 0.1 mm 0 mps 736 mmHg 93%
    14:00 -12°C° 0.1 mm 0 mps 736 mmHg 94%
    15:00 -12°C° 0.1 mm 1 mps 737 mmHg 94%
    16:00 -12°C° 0.1 mm 1 mps 737 mmHg 95%
    17:00 -12°C° 0.1 mm 1 mps 737 mmHg 95%
    18:00 -14°C° 0.1 mm 2 mps 738 mmHg 94%
    19:00 -14°C° 0.1 mm 2 mps 738 mmHg 93%
    20:00 -15°C° 0.1 mm 3 mps 738 mmHg 93%
    21:00 -15°C° 0 mm 3 mps 738 mmHg 93%
    22:00 -16°C° 0 mm 3 mps 738 mmHg 93%
    23:00 -17°C° 0 mm 3 mps 739 mmHg 93%
    Show more